Location: Unspecified
(0.0000°N, 0.0000°E)
Time: 16:02:43
(UTC+00:00)

GRAB - Visible Passes

Search period start: 15 June 2025 00:00
Search period end: 25 June 2025 00:00
Orbit: 898 x 916 km, 69.9° (Epoch: 14 June)

Date Brightness Start Highest point End Pass type
(mag) Time Alt. Az. Time Alt. Az. Time Alt. Az.
15 Jun 9.5 03:20:51 10° ESE 03:22:10 11° ESE 03:23:28 10° E visible
15 Jun 7.0 05:01:51 11° SSW 05:07:33 55° WNW 05:13:24 10° N visible
16 Jun 9.1 03:24:11 13° SE 03:26:48 17° ESE 03:30:37 10° ENE visible
16 Jun 7.5 05:07:26 14° SW 05:12:08 36° WNW 05:17:36 10° N visible
17 Jun 8.5 03:29:43 23° SE 03:31:25 26° ESE 03:36:20 10° NE visible
17 Jun 8.0 05:12:58 14° WSW 05:16:45 24° WNW 05:21:28 10° NNW visible
18 Jun 7.8 03:35:12 38° SE 03:36:02 40° ESE 03:41:36 10° NE visible
18 Jun 8.4 05:18:27 11° WSW 05:21:22 16° WNW 05:24:49 10° NW visible
19 Jun 7.2 03:40:38 61° ESE 03:40:38 61° ESE 03:46:32 10° NNE visible
20 Jun 6.9 03:45:59 70° NNE 03:45:59 70° NNE 03:51:15 10° NNE visible
21 Jun 7.4 03:51:17 47° NNW 03:51:17 47° NNW 03:55:43 10° N visible
22 Jun 8.0 03:56:30 30° NNW 03:56:30 30° NNW 03:59:58 10° N visible
23 Jun 9.7 02:18:27 10° NE 02:18:27 10° NE 02:18:27 10° NE visible
23 Jun 8.5 04:01:41 19° NW 04:01:41 19° NW 04:03:55 10° NNW visible
24 Jun 9.6 02:23:33 11° NE 02:23:33 11° NE 02:23:46 10° NE visible
24 Jun 9.0 04:06:46 12° NW 04:06:46 12° NW 04:07:24 10° NW visible
